Location: Boiro
(42.6475°N, 8.8834°W)
Time: 09:39:57
(UTC+01:00)

Transit 4A - Pass Details

Date: 02 October 2023
Orbit: 864 x 979 km, 66.8° (Epoch: 07 December)

Event Time Altitude Azimuth Distance (km) Brightness Sun altitude
Rises 21:41:18 0° 331° (NNW) 3,674 11.6 -16.5°
Reaches altitude 10° 21:43:56 10° 334° (NNW) 2,713 10.8 -17.0°
Maximum altitude 21:50:14 66° 56° (NE) 1,035 7.9 -18.1°
Enters shadow 21:53:44 27° 131° (SE) 1,725 8.8 -18.7°
